Location: Newark
(40.2997°S, 67.9000°W)
Time: 12:44:38
(UTC+00:00)

LightSail 2 - Visible Passes

Search period start: 06 December 2019 00:00
Search period end: 16 December 2019 00:00
Orbit: 695 x 731 km, 24.0° (Epoch: 05 December)

Date Brightness Start Highest point End Pass type
(mag) Time Alt. Az. Time Alt. Az. Time Alt. Az.
09 Dec 7.2 07:52:14 10° N 07:53:41 11° N 07:55:09 10° NNE visible
11 Dec 7.0 07:41:29 11° NNW 07:42:38 12° N 07:44:36 10° NNE visible
13 Dec 7.0 07:31:33 12° N 07:31:35 12° N 07:33:24 10° NNE visible
